AZU2453 SBKP-SBJP

Flight info

Callsign AZU2453
Flight time 2h 54m
Altitude 35000
Route KONVI UZ23 ANBEX
Aircraft A320/M-SDE3FGHIRWY/LB1

Departure

Time 2026-04-24 22:54
Airport Viracopos International Airport (SBKP)

Arrival

Time 2026-04-25 01:48
Airport Presidente Castro Pinto International Airport (SBJP)
Time Latitude Longitude Altitude Speed Heading
2026-04-24 21:57 -23.00489 -47.14930 2169 ft 0 kts 37°
2026-04-24 22:42 -23.00490 -47.14930 2169 ft 2 kts 37°
2026-04-24 22:43 -23.00506 -47.14943 2162 ft 3 kts 32°
2026-04-24 22:43 -23.00524 -47.14954 2163 ft 3 kts 19°
2026-04-24 22:43 -23.00542 -47.14958 2160 ft 3 kts 339°
2026-04-24 22:43 -23.00551 -47.14952 2159 ft 0 kts 308°
2026-04-24 22:46 -23.00550 -47.14954 2159 ft 1 kts 308°
2026-04-24 22:47 -23.00536 -47.14973 2160 ft 5 kts 308°
2026-04-24 22:47 -23.00510 -47.15010 2163 ft 8 kts 308°
2026-04-24 22:47 -23.00470 -47.15065 2167 ft 11 kts 308°
2026-04-24 22:47 -23.00421 -47.15135 2164 ft 11 kts 308°
2026-04-24 22:48 -23.00357 -47.15151 2164 ft 10 kts 32°
2026-04-24 22:48 -23.00310 -47.15112 2159 ft 8 kts 37°
2026-04-24 22:48 -23.00273 -47.15082 2167 ft 6 kts 37°
2026-04-24 22:48 -23.00223 -47.15040 2162 ft 13 kts 37°
2026-04-24 22:49 -23.00146 -47.14976 2162 ft 13 kts 37°
2026-04-24 22:49 -23.00077 -47.14919 2166 ft 12 kts 38°
2026-04-24 22:49 -23.00022 -47.14870 2163 ft 9 kts 49°
2026-04-24 22:49 -22.99991 -47.14820 2163 ft 7 kts 47°
2026-04-24 22:50 -22.99957 -47.14794 2160 ft 5 kts 33°
2026-04-24 22:50 -22.99937 -47.14776 2167 ft 0 kts 40°
2026-04-24 22:51 -22.99915 -47.14754 2163 ft 11 kts 45°
2026-04-24 22:51 -22.99882 -47.14668 2168 ft 13 kts 83°
2026-04-24 22:51 -22.99895 -47.14628 2163 ft 0 kts 129°
2026-04-24 22:53 -23.00082 -47.14372 2161 ft 80 kts 127°
2026-04-24 22:53 -23.00549 -47.13719 2161 ft 137 kts 128°
2026-04-24 22:54 -23.01225 -47.12776 2194 ft 180 kts 128°
2026-04-24 22:54 -23.01970 -47.11697 2823 ft 181 kts 119°
2026-04-24 22:54 -23.02192 -47.10329 3046 ft 195 kts 85°
2026-04-24 22:54 -23.01945 -47.08823 3183 ft 210 kts 77°
2026-04-24 22:55 -23.01597 -47.07230 3320 ft 223 kts 80°
2026-04-24 22:55 -23.01250 -47.05526 3448 ft 238 kts 81°
2026-04-24 22:55 -23.00931 -47.03745 3814 ft 241 kts 81°
2026-04-24 22:55 -23.00363 -47.02023 4143 ft 250 kts 59°
2026-04-24 22:56 -22.99119 -47.00666 4342 ft 265 kts 37°
2026-04-24 22:56 -22.97616 -46.99495 4771 ft 266 kts 38°
2026-04-24 22:56 -22.96125 -46.98299 5208 ft 266 kts 38°
2026-04-24 22:56 -22.94638 -46.97089 5630 ft 268 kts 37°
2026-04-24 22:57 -22.93150 -46.95869 6043 ft 269 kts 37°
2026-04-24 22:57 -22.91656 -46.94643 6414 ft 271 kts 37°
2026-04-24 22:57 -22.90144 -46.93395 6767 ft 274 kts 38°
2026-04-24 22:57 -22.88684 -46.92102 7150 ft 276 kts 40°
2026-04-24 22:58 -22.87221 -46.90745 7512 ft 278 kts 41°
2026-04-24 22:58 -22.85761 -46.89367 7869 ft 280 kts 41°
2026-04-24 22:58 -22.84288 -46.87975 8199 ft 282 kts 41°
2026-04-24 22:58 -22.82801 -46.86576 8548 ft 284 kts 41°
2026-04-24 22:59 -22.81302 -46.85173 8902 ft 286 kts 41°
2026-04-24 22:59 -22.79787 -46.83762 9194 ft 288 kts 41°
2026-04-24 22:59 -22.76742 -46.80891 9831 ft 292 kts 43°
2026-04-24 23:00 -22.75298 -46.79374 10093 ft 296 kts 45°
2026-04-24 23:00 -22.73835 -46.77761 10218 ft 303 kts 46°
2026-04-24 23:00 -22.72352 -46.76099 10346 ft 310 kts 46°
2026-04-24 23:00 -22.70852 -46.74391 10473 ft 316 kts 50°
2026-04-24 23:01 -22.69576 -46.72438 10599 ft 320 kts 61°
2026-04-24 23:01 -22.68668 -46.70228 10728 ft 324 kts 72°
2026-04-24 23:01 -22.68173 -46.67840 10850 ft 327 kts 84°
2026-04-24 23:01 -22.68098 -46.65373 10975 ft 330 kts 91°
2026-04-24 23:02 -22.68124 -46.62912 11097 ft 332 kts 91°
2026-04-24 23:02 -22.68148 -46.60403 11224 ft 334 kts 91°
2026-04-24 23:02 -22.68172 -46.57882 11363 ft 335 kts 91°
2026-04-24 23:02 -22.68195 -46.55357 11511 ft 336 kts 91°
2026-04-24 23:03 -22.68218 -46.52825 11649 ft 337 kts 91°
2026-04-24 23:03 -22.68238 -46.50288 11773 ft 337 kts 91°
2026-04-24 23:03 -22.68257 -46.47747 11902 ft 338 kts 91°
2026-04-24 23:03 -22.68275 -46.45196 12023 ft 339 kts 91°
2026-04-24 23:04 -22.68293 -46.42680 12146 ft 339 kts 91°
2026-04-24 23:04 -22.68311 -46.40119 12271 ft 340 kts 91°
2026-04-24 23:04 -22.68330 -46.37561 12394 ft 340 kts 91°
2026-04-24 23:04 -22.68349 -46.35005 12518 ft 340 kts 91°
2026-04-24 23:05 -22.68367 -46.32449 12642 ft 340 kts 91°
2026-04-24 23:05 -22.68384 -46.29892 12767 ft 340 kts 91°
2026-04-24 23:05 -22.68402 -46.27332 12892 ft 340 kts 91°
2026-04-24 23:05 -22.68421 -46.24768 13013 ft 340 kts 91°
2026-04-24 23:06 -22.68357 -46.22243 13139 ft 341 kts 84°
2026-04-24 23:06 -22.67859 -46.19733 13265 ft 342 kts 72°
2026-04-24 23:06 -22.66904 -46.17365 13390 ft 344 kts 60°
2026-04-24 23:06 -22.65530 -46.15243 13518 ft 345 kts 49°
2026-04-24 23:07 -22.63791 -46.13452 13640 ft 346 kts 39°
2026-04-24 23:07 -22.61924 -46.11812 13764 ft 346 kts 39°
2026-04-24 23:07 -22.60056 -46.10169 13891 ft 347 kts 39°
2026-04-24 23:07 -22.58184 -46.08519 14017 ft 347 kts 39°
2026-04-24 23:08 -22.56317 -46.06867 14139 ft 347 kts 39°
2026-04-24 23:08 -22.54473 -46.05239 14273 ft 347 kts 39°
2026-04-24 23:08 -22.52604 -46.03591 14388 ft 347 kts 39°
2026-04-24 23:08 -22.50736 -46.01941 14513 ft 346 kts 39°
2026-04-24 23:09 -22.48873 -46.00294 14642 ft 346 kts 39°
2026-04-24 23:09 -22.47011 -45.98650 14760 ft 346 kts 39°
2026-04-24 23:09 -22.45152 -45.97009 14887 ft 345 kts 39°
2026-04-24 23:09 -22.43293 -45.95370 15012 ft 345 kts 39°
2026-04-24 23:10 -22.41432 -45.93732 15128 ft 344 kts 39°
2026-04-24 23:10 -22.39601 -45.92121 15260 ft 344 kts 39°
2026-04-24 23:10 -22.37747 -45.90492 15378 ft 344 kts 39°
2026-04-24 23:10 -22.35894 -45.88866 15510 ft 343 kts 39°
2026-04-24 23:11 -22.34042 -45.87239 15635 ft 343 kts 39°
2026-04-24 23:11 -22.32194 -45.85614 15759 ft 342 kts 39°
2026-04-24 23:11 -22.30347 -45.83988 15881 ft 342 kts 39°
2026-04-24 23:11 -22.28505 -45.82367 16009 ft 342 kts 39°
2026-04-24 23:12 -22.26660 -45.80751 16134 ft 341 kts 38°
2026-04-24 23:12 -22.24834 -45.79165 16257 ft 341 kts 38°
2026-04-24 23:12 -22.22982 -45.77565 16384 ft 341 kts 38°
2026-04-24 23:12 -22.21132 -45.75968 16503 ft 340 kts 38°
2026-04-24 23:13 -22.19286 -45.74377 16631 ft 339 kts 38°
2026-04-24 23:13 -22.17441 -45.72787 16756 ft 339 kts 38°
2026-04-24 23:13 -22.15597 -45.71200 16884 ft 339 kts 38°
2026-04-24 23:13 -22.13755 -45.69614 17006 ft 339 kts 38°
2026-04-24 23:14 -22.11915 -45.68028 17129 ft 338 kts 38°
2026-04-24 23:14 -22.10102 -45.66464 17254 ft 338 kts 38°
2026-04-24 23:14 -22.08267 -45.64881 17379 ft 338 kts 38°
2026-04-24 23:14 -22.06433 -45.63299 17500 ft 338 kts 38°
2026-04-24 23:15 -22.04597 -45.61717 17627 ft 338 kts 38°
2026-04-24 23:15 -22.02761 -45.60138 17752 ft 337 kts 38°
2026-04-24 23:15 -22.00929 -45.58562 17880 ft 337 kts 38°
2026-04-24 23:15 -21.99099 -45.56983 17991 ft 337 kts 38°
2026-04-24 23:16 -21.97271 -45.55406 18131 ft 337 kts 38°
2026-04-24 23:16 -21.95442 -45.53830 18254 ft 336 kts 38°
2026-04-24 23:16 -21.93638 -45.52281 18377 ft 336 kts 38°
2026-04-24 23:16 -21.91810 -45.50714 18503 ft 336 kts 39°
2026-04-24 23:17 -21.89983 -45.49146 18627 ft 336 kts 39°
2026-04-24 23:17 -21.88156 -45.47579 18752 ft 336 kts 39°
2026-04-24 23:17 -21.86327 -45.46009 18876 ft 336 kts 39°
2026-04-24 23:17 -21.84501 -45.44441 19002 ft 336 kts 39°
2026-04-24 23:18 -21.82673 -45.42872 19127 ft 336 kts 39°
2026-04-24 23:18 -21.80851 -45.41309 19255 ft 335 kts 39°
2026-04-24 23:18 -21.79051 -45.39765 19371 ft 335 kts 39°
2026-04-24 23:18 -21.77233 -45.38203 19501 ft 334 kts 39°
2026-04-24 23:19 -21.75420 -45.36645 19626 ft 334 kts 40°
2026-04-24 23:19 -21.73604 -45.35084 19738 ft 334 kts 40°
2026-04-24 23:19 -21.71792 -45.33526 19885 ft 334 kts 40°
2026-04-24 23:19 -21.69975 -45.31967 19997 ft 334 kts 40°
2026-04-24 23:20 -21.68162 -45.30414 20113 ft 334 kts 40°
2026-04-24 23:20 -21.66346 -45.28863 20251 ft 333 kts 40°
2026-04-24 23:20 -21.64553 -45.27333 20369 ft 334 kts 40°
2026-04-24 23:20 -21.62735 -45.25783 20497 ft 334 kts 40°
2026-04-24 23:21 -21.60916 -45.24232 20621 ft 334 kts 40°
2026-04-24 23:21 -21.59096 -45.22679 20746 ft 334 kts 40°
2026-04-24 23:21 -21.57276 -45.21124 20871 ft 334 kts 40°
2026-04-24 23:21 -21.55458 -45.19571 20996 ft 334 kts 40°
2026-04-24 23:22 -21.53640 -45.18018 21119 ft 334 kts 40°
2026-04-24 23:22 -21.51820 -45.16462 21245 ft 334 kts 40°
2026-04-24 23:22 -21.50023 -45.14927 21368 ft 334 kts 40°
2026-04-24 23:22 -21.48199 -45.13371 21486 ft 335 kts 40°
2026-04-24 23:23 -21.46376 -45.11818 21622 ft 335 kts 40°
2026-04-24 23:23 -21.44551 -45.10266 21741 ft 335 kts 39°
2026-04-24 23:23 -21.42726 -45.08714 21866 ft 335 kts 39°
2026-04-24 23:23 -21.40899 -45.07159 21990 ft 335 kts 39°
2026-04-24 23:24 -21.39070 -45.05601 22113 ft 336 kts 39°
2026-04-24 23:24 -21.37239 -45.04040 22238 ft 336 kts 39°
2026-04-24 23:24 -21.35404 -45.02477 22364 ft 337 kts 39°
2026-04-24 23:24 -21.33592 -45.00934 22486 ft 337 kts 38°
2026-04-24 23:25 -21.31757 -44.99370 22613 ft 337 kts 38°
2026-04-24 23:25 -21.29926 -44.97810 22732 ft 336 kts 38°
2026-04-24 23:25 -21.28090 -44.96253 22862 ft 336 kts 38°
2026-04-24 23:25 -21.26256 -44.94699 22987 ft 336 kts 37°
2026-04-24 23:26 -21.24420 -44.93142 23112 ft 336 kts 37°
2026-04-24 23:26 -21.22591 -44.91589 23237 ft 336 kts 37°
2026-04-24 23:26 -21.20782 -44.90055 23360 ft 336 kts 37°
2026-04-24 23:26 -21.18952 -44.88502 23486 ft 335 kts 37°
2026-04-24 23:27 -21.17124 -44.86951 23609 ft 335 kts 37°
2026-04-24 23:27 -21.15277 -44.85386 23740 ft 344 kts 37°
2026-04-24 23:27 -21.13371 -44.83773 23870 ft 354 kts 36°
2026-04-24 23:27 -21.11410 -44.82114 24000 ft 364 kts 36°
2026-04-24 23:28 -21.09396 -44.80410 24128 ft 374 kts 36°
2026-04-24 23:28 -21.07335 -44.78662 24255 ft 383 kts 36°
2026-04-24 23:28 -21.05244 -44.76888 24382 ft 393 kts 36°
2026-04-24 23:28 -21.03050 -44.75098 24510 ft 401 kts 34°
2026-04-24 23:29 -21.00764 -44.73328 24630 ft 410 kts 33°
2026-04-24 23:29 -20.98410 -44.71558 24773 ft 418 kts 33°
2026-04-24 23:29 -20.96006 -44.69765 24887 ft 425 kts 33°
2026-04-24 23:29 -20.93564 -44.67938 25002 ft 432 kts 33°
2026-04-24 23:30 -20.91087 -44.66066 25141 ft 439 kts 33°
2026-04-24 23:30 -20.88581 -44.64160 25262 ft 446 kts 34°
2026-04-24 23:30 -20.86039 -44.62221 25391 ft 452 kts 34°
2026-04-24 23:30 -20.83465 -44.60254 25517 ft 457 kts 34°
2026-04-24 23:31 -20.80901 -44.58292 25633 ft 463 kts 34°
2026-04-24 23:31 -20.78271 -44.56282 25767 ft 467 kts 34°
2026-04-24 23:31 -20.75618 -44.54259 25890 ft 472 kts 34°
2026-04-24 23:31 -20.72936 -44.52213 26021 ft 476 kts 34°
2026-04-24 23:32 -20.70235 -44.50153 26209 ft 478 kts 34°
2026-04-24 23:32 -20.67526 -44.48089 26416 ft 479 kts 34°
2026-04-24 23:32 -20.64804 -44.46019 26642 ft 481 kts 34°
2026-04-24 23:32 -20.62072 -44.43945 26831 ft 483 kts 34°
2026-04-24 23:33 -20.59363 -44.41891 27042 ft 485 kts 34°
2026-04-24 23:33 -20.57504 -44.40483 27162 ft 486 kts 34°
2026-04-24 23:33 -20.53850 -44.37711 27440 ft 488 kts 34°
2026-04-24 23:33 -20.51086 -44.35607 27622 ft 489 kts 34°
2026-04-24 23:34 -20.48310 -44.33492 27773 ft 491 kts 34°
2026-04-24 23:34 -20.45521 -44.31372 27942 ft 493 kts 34°
2026-04-24 23:34 -20.43665 -44.29963 28048 ft 494 kts 34°
2026-04-24 23:34 -20.40876 -44.27816 28224 ft 495 kts 35°
2026-04-24 23:35 -20.38104 -44.25632 28408 ft 497 kts 36°
2026-04-24 23:35 -20.34435 -44.22694 28625 ft 499 kts 37°
2026-04-24 23:35 -20.31663 -44.20463 28812 ft 500 kts 37°
2026-04-24 23:35 -20.28882 -44.18232 28977 ft 502 kts 37°
2026-04-24 23:36 -20.27033 -44.16757 29074 ft 503 kts 36°
2026-04-24 23:36 -20.24225 -44.14527 29236 ft 504 kts 36°
2026-04-24 23:36 -20.21406 -44.12299 29424 ft 505 kts 36°
2026-04-24 23:36 -20.18593 -44.10080 29685 ft 504 kts 36°
2026-04-24 23:37 -20.15773 -44.07859 29915 ft 504 kts 36°
2026-04-24 23:37 -20.12957 -44.05641 30137 ft 504 kts 36°
2026-04-24 23:37 -20.06748 -44.00733 30587 ft 504 kts 36°
2026-04-24 23:38 -20.04843 -43.99227 30719 ft 504 kts 36°
2026-04-24 23:38 -20.02027 -43.97007 30883 ft 504 kts 36°
2026-04-24 23:38 -19.99251 -43.94821 31124 ft 503 kts 36°
2026-04-24 23:38 -19.96438 -43.92610 31356 ft 502 kts 36°
2026-04-24 23:39 -19.93635 -43.90410 31611 ft 501 kts 36°
2026-04-24 23:39 -19.90836 -43.88215 31880 ft 499 kts 36°
2026-04-24 23:39 -19.88046 -43.86027 32157 ft 498 kts 36°
2026-04-24 23:39 -19.85267 -43.83846 32424 ft 496 kts 36°
2026-04-24 23:40 -19.82458 -43.81708 32659 ft 496 kts 34°
2026-04-24 23:40 -19.79623 -43.79635 32900 ft 495 kts 34°
2026-04-24 23:40 -19.76803 -43.77624 33138 ft 494 kts 33°
2026-04-24 23:40 -19.73944 -43.75605 33387 ft 493 kts 33°
2026-04-24 23:41 -19.71096 -43.73587 33638 ft 492 kts 33°
2026-04-24 23:41 -19.68256 -43.71556 33875 ft 492 kts 34°
2026-04-24 23:41 -19.65428 -43.69518 34085 ft 491 kts 34°
2026-04-24 23:41 -19.62610 -43.67477 34335 ft 490 kts 34°
2026-04-24 23:42 -19.59798 -43.65436 34540 ft 490 kts 34°
2026-04-24 23:42 -19.56992 -43.63398 34704 ft 490 kts 34°
2026-04-24 23:42 -19.54175 -43.61359 34853 ft 490 kts 34°
2026-04-24 23:42 -19.51392 -43.59350 34975 ft 490 kts 34°
2026-04-24 23:43 -19.48578 -43.57323 35123 ft 490 kts 34°
2026-04-24 23:43 -19.45755 -43.55292 35169 ft 491 kts 34°
2026-04-24 23:43 -19.40088 -43.51213 35165 ft 493 kts 34°
2026-04-24 23:44 -19.34412 -43.47119 35166 ft 493 kts 34°
2026-04-24 23:44 -19.28778 -43.43011 35166 ft 490 kts 35°
2026-04-24 23:45 -19.23363 -43.38738 35166 ft 488 kts 37°
2026-04-24 23:45 -19.17994 -43.34352 35171 ft 488 kts 37°
2026-04-24 23:46 -19.12599 -43.30010 35170 ft 487 kts 37°
2026-04-24 23:46 -19.07164 -43.25714 35169 ft 488 kts 36°
2026-04-24 23:47 -19.01763 -43.21450 35174 ft 488 kts 36°
2026-04-24 23:47 -18.96330 -43.17152 35174 ft 488 kts 37°
2026-04-24 23:48 -18.90893 -43.12857 35173 ft 488 kts 36°
2026-04-24 23:48 -18.85454 -43.08562 35174 ft 488 kts 37°
2026-04-24 23:49 -18.80052 -43.04290 35175 ft 488 kts 37°
2026-04-24 23:49 -18.74611 -42.99996 35175 ft 489 kts 37°
2026-04-24 23:50 -18.69163 -42.95701 35175 ft 489 kts 37°
2026-04-24 23:50 -18.63718 -42.91399 35178 ft 489 kts 37°
2026-04-24 23:51 -18.58263 -42.87092 35181 ft 490 kts 37°
2026-04-24 23:51 -18.52840 -42.82823 35182 ft 490 kts 36°
2026-04-24 23:52 -18.47382 -42.78534 35185 ft 489 kts 36°
2026-04-24 23:52 -18.41926 -42.74254 35186 ft 489 kts 36°
2026-04-24 23:53 -18.36469 -42.69976 35186 ft 488 kts 36°
2026-04-24 23:53 -18.31061 -42.65737 35181 ft 488 kts 36°
2026-04-24 23:54 -18.25620 -42.61462 35180 ft 488 kts 36°
2026-04-24 23:54 -18.20184 -42.57204 35172 ft 488 kts 36°
2026-04-24 23:55 -18.14774 -42.52979 35116 ft 482 kts 37°
2026-04-24 23:55 -18.09435 -42.48805 35118 ft 481 kts 37°
2026-04-24 23:56 -18.04057 -42.44610 35120 ft 481 kts 37°
2026-04-24 23:56 -17.98689 -42.40410 35121 ft 481 kts 37°
2026-04-24 23:57 -17.93313 -42.36213 35121 ft 481 kts 37°
2026-04-24 23:57 -17.87969 -42.32057 35122 ft 481 kts 37°
2026-04-24 23:58 -17.82591 -42.27874 35124 ft 481 kts 37°
2026-04-24 23:58 -17.77217 -42.23692 35109 ft 481 kts 37°
2026-04-24 23:59 -17.71836 -42.19508 35100 ft 482 kts 37°
2026-04-24 23:59 -17.66487 -42.15341 35102 ft 482 kts 37°
2026-04-25 00:00 -17.61095 -42.11149 35105 ft 483 kts 37°
2026-04-25 00:00 -17.55691 -42.06967 35111 ft 483 kts 37°
2026-04-25 00:01 -17.50285 -42.02788 35110 ft 483 kts 37°
2026-04-25 00:01 -17.44878 -41.98600 35117 ft 483 kts 37°
2026-04-25 00:02 -17.39518 -41.94437 35117 ft 483 kts 37°
2026-04-25 00:02 -17.34124 -41.90257 35115 ft 482 kts 37°
2026-04-25 00:03 -17.28724 -41.86087 35111 ft 483 kts 37°
2026-04-25 00:03 -17.23323 -41.81909 35112 ft 483 kts 37°
2026-04-25 00:04 -17.17957 -41.77757 35117 ft 483 kts 37°
2026-04-25 00:04 -17.12549 -41.73586 35120 ft 483 kts 37°
2026-04-25 00:05 -17.07137 -41.69420 35150 ft 482 kts 37°
2026-04-25 00:05 -17.01750 -41.65266 35163 ft 481 kts 38°
2026-04-25 00:06 -16.96375 -41.61118 35164 ft 479 kts 37°
2026-04-25 00:06 -16.91048 -41.57020 35162 ft 478 kts 37°
2026-04-25 00:07 -16.85698 -41.52905 35158 ft 478 kts 37°
2026-04-25 00:07 -16.80347 -41.48793 35155 ft 477 kts 37°
2026-04-25 00:08 -16.75010 -41.44693 35156 ft 476 kts 37°
2026-04-25 00:08 -16.69707 -41.40619 35152 ft 476 kts 37°
2026-04-25 00:09 -16.64381 -41.36507 35154 ft 476 kts 38°
2026-04-25 00:09 -16.59072 -41.32374 35152 ft 476 kts 38°
2026-04-25 00:10 -16.53761 -41.28245 35157 ft 476 kts 38°
2026-04-25 00:10 -16.48447 -41.24125 35160 ft 476 kts 38°
2026-04-25 00:11 -16.43173 -41.20045 35161 ft 475 kts 38°
2026-04-25 00:11 -16.37870 -41.15951 35159 ft 474 kts 38°
2026-04-25 00:12 -16.32571 -41.11856 35151 ft 474 kts 38°
2026-04-25 00:12 -16.27273 -41.07758 35138 ft 475 kts 38°
2026-04-25 00:13 -16.21999 -41.03682 35139 ft 476 kts 38°
2026-04-25 00:13 -16.16679 -40.99585 35133 ft 476 kts 38°
2026-04-25 00:14 -16.11363 -40.95485 35137 ft 476 kts 38°
2026-04-25 00:14 -16.06045 -40.91390 35131 ft 476 kts 38°
2026-04-25 00:15 -16.00718 -40.87288 35130 ft 476 kts 38°
2026-04-25 00:15 -15.95431 -40.83220 35125 ft 476 kts 38°
2026-04-25 00:16 -15.90112 -40.79133 35119 ft 476 kts 38°
2026-04-25 00:16 -15.84790 -40.75041 35120 ft 476 kts 38°
2026-04-25 00:17 -15.79503 -40.70981 35122 ft 476 kts 38°
2026-04-25 00:17 -15.74182 -40.66894 35121 ft 476 kts 38°
2026-04-25 00:18 -15.68857 -40.62814 35121 ft 476 kts 38°
2026-04-25 00:18 -15.63532 -40.58738 35127 ft 476 kts 38°
2026-04-25 00:19 -15.58207 -40.54669 35121 ft 475 kts 38°
2026-04-25 00:19 -15.52925 -40.50627 35122 ft 475 kts 38°
2026-04-25 00:20 -15.47614 -40.46551 35122 ft 474 kts 38°
2026-04-25 00:20 -15.42303 -40.42493 35125 ft 474 kts 38°
2026-04-25 00:21 -15.36990 -40.38442 35121 ft 474 kts 38°
2026-04-25 00:21 -15.31722 -40.34419 35124 ft 474 kts 38°
2026-04-25 00:22 -15.26418 -40.30374 35121 ft 473 kts 38°
2026-04-25 00:22 -15.21111 -40.26329 35122 ft 473 kts 38°
2026-04-25 00:23 -15.15807 -40.22291 35120 ft 473 kts 38°
2026-04-25 00:23 -15.10498 -40.18254 35119 ft 473 kts 38°
2026-04-25 00:24 -15.05229 -40.14245 35110 ft 474 kts 38°
2026-04-25 00:24 -14.99920 -40.10198 35105 ft 474 kts 38°
2026-04-25 00:25 -14.94609 -40.06161 35111 ft 473 kts 39°
2026-04-25 00:25 -14.89320 -40.02142 35112 ft 471 kts 39°
2026-04-25 00:26 -14.84081 -39.98176 35110 ft 469 kts 39°
2026-04-25 00:26 -14.78820 -39.94196 35108 ft 468 kts 39°
2026-04-25 00:27 -14.73581 -39.90227 35104 ft 467 kts 39°
2026-04-25 00:27 -14.68343 -39.86257 35102 ft 466 kts 39°
2026-04-25 00:28 -14.63156 -39.82326 35100 ft 465 kts 39°
2026-04-25 00:28 -14.57935 -39.78373 35085 ft 465 kts 38°
2026-04-25 00:29 -14.52713 -39.74430 35089 ft 465 kts 39°
2026-04-25 00:29 -14.47494 -39.70491 35079 ft 465 kts 39°
2026-04-25 00:30 -14.42314 -39.66576 35083 ft 465 kts 39°
2026-04-25 00:30 -14.37100 -39.62635 35083 ft 464 kts 39°
2026-04-25 00:31 -14.31881 -39.58704 35076 ft 465 kts 38°
2026-04-25 00:31 -14.26657 -39.54782 35081 ft 464 kts 38°
2026-04-25 00:32 -14.21463 -39.50897 35083 ft 464 kts 38°
2026-04-25 00:32 -14.16243 -39.46985 35084 ft 464 kts 38°
2026-04-25 00:33 -14.11020 -39.43075 35077 ft 465 kts 38°
2026-04-25 00:33 -14.05788 -39.39157 35076 ft 465 kts 38°
2026-04-25 00:34 -14.00595 -39.35275 35082 ft 464 kts 38°
2026-04-25 00:34 -13.95369 -39.31365 35081 ft 464 kts 38°
2026-04-25 00:35 -13.90146 -39.27470 35103 ft 463 kts 38°
2026-04-25 00:35 -13.84939 -39.23591 35108 ft 461 kts 38°
2026-04-25 00:36 -13.79804 -39.19745 35106 ft 459 kts 38°
2026-04-25 00:36 -13.74643 -39.15890 35104 ft 458 kts 38°
2026-04-25 00:37 -13.69483 -39.12051 35101 ft 457 kts 38°
2026-04-25 00:37 -13.64336 -39.08221 35097 ft 456 kts 38°
2026-04-25 00:38 -13.59233 -39.04423 35087 ft 456 kts 38°
2026-04-25 00:38 -13.54094 -39.00606 35084 ft 456 kts 38°
2026-04-25 00:39 -13.48951 -38.96797 35079 ft 456 kts 38°
2026-04-25 00:39 -13.43805 -38.92992 35077 ft 455 kts 38°
2026-04-25 00:40 -13.38698 -38.89220 35072 ft 455 kts 38°
2026-04-25 00:40 -13.33558 -38.85416 35073 ft 455 kts 38°
2026-04-25 00:41 -13.28422 -38.81620 35078 ft 455 kts 38°
2026-04-25 00:41 -13.23276 -38.77824 35077 ft 455 kts 38°
2026-04-25 00:42 -13.18133 -38.74038 35075 ft 455 kts 38°
2026-04-25 00:42 -13.13026 -38.70270 35069 ft 455 kts 38°
2026-04-25 00:43 -13.07886 -38.66477 35076 ft 455 kts 38°
2026-04-25 00:43 -13.02741 -38.62690 35073 ft 455 kts 38°
2026-04-25 00:44 -12.97600 -38.58902 35067 ft 455 kts 38°
2026-04-25 00:44 -12.92490 -38.55136 35072 ft 455 kts 37°
2026-04-25 00:45 -12.87333 -38.51342 35034 ft 458 kts 36°
2026-04-25 00:45 -12.82139 -38.47525 35026 ft 461 kts 36°
2026-04-25 00:46 -12.76917 -38.43692 35027 ft 463 kts 36°
2026-04-25 00:47 -12.69090 -38.37940 35032 ft 464 kts 36°
2026-04-25 00:47 -12.63839 -38.34085 35037 ft 465 kts 36°
2026-04-25 00:48 -12.58575 -38.30228 35038 ft 465 kts 36°
2026-04-25 00:48 -12.53312 -38.26367 35042 ft 466 kts 36°
2026-04-25 00:49 -12.48042 -38.22507 35043 ft 466 kts 36°
2026-04-25 00:49 -12.42808 -38.18677 35044 ft 466 kts 36°
2026-04-25 00:50 -12.37536 -38.14814 35046 ft 466 kts 36°
2026-04-25 00:50 -12.32266 -38.10956 35048 ft 466 kts 36°
2026-04-25 00:51 -12.26985 -38.07103 35047 ft 466 kts 36°
2026-04-25 00:51 -12.21742 -38.03275 35050 ft 466 kts 36°
2026-04-25 00:52 -12.16461 -37.99418 35050 ft 466 kts 36°
2026-04-25 00:52 -12.11179 -37.95567 35049 ft 466 kts 36°
2026-04-25 00:53 -12.05898 -37.91717 35051 ft 466 kts 36°
2026-04-25 00:53 -12.00648 -37.87894 35052 ft 467 kts 36°
2026-04-25 00:54 -11.95364 -37.84037 35053 ft 467 kts 36°
2026-04-25 00:54 -11.90081 -37.80184 35052 ft 467 kts 36°
2026-04-25 00:55 -11.84794 -37.76343 35059 ft 466 kts 37°
2026-04-25 00:55 -11.79508 -37.72520 35078 ft 464 kts 36°
2026-04-25 00:56 -11.74287 -37.68744 35082 ft 462 kts 36°
2026-04-25 00:56 -11.69063 -37.64961 35084 ft 459 kts 36°
2026-04-25 00:57 -11.63862 -37.61190 35086 ft 458 kts 36°
2026-04-25 00:57 -11.58671 -37.57433 35072 ft 457 kts 36°
2026-04-25 00:58 -11.53524 -37.53709 35078 ft 456 kts 36°
2026-04-25 00:58 -11.48347 -37.49965 35070 ft 456 kts 36°
2026-04-25 00:59 -11.43170 -37.46227 35064 ft 456 kts 36°
2026-04-25 00:59 -11.38023 -37.42518 35066 ft 456 kts 36°
2026-04-25 01:00 -11.32850 -37.38790 35063 ft 456 kts 36°
2026-04-25 01:00 -11.27677 -37.35056 35066 ft 456 kts 36°
2026-04-25 01:01 -11.22504 -37.31318 35062 ft 456 kts 36°
2026-04-25 01:01 -11.17327 -37.27589 35065 ft 456 kts 36°
2026-04-25 01:02 -11.12175 -37.23883 35070 ft 456 kts 36°
2026-04-25 01:02 -11.06992 -37.20147 35070 ft 457 kts 36°
2026-04-25 01:03 -11.01805 -37.16411 35072 ft 456 kts 36°
2026-04-25 01:03 -10.96619 -37.12686 35067 ft 456 kts 35°
2026-04-25 01:04 -10.91462 -37.08992 35064 ft 456 kts 35°
2026-04-25 01:04 -10.86276 -37.05281 35068 ft 456 kts 35°
2026-04-25 01:05 -10.81087 -37.01562 35061 ft 456 kts 35°
2026-04-25 01:05 -10.75895 -36.97842 35046 ft 457 kts 35°
2026-04-25 01:06 -10.70693 -36.94122 35041 ft 457 kts 35°
2026-04-25 01:06 -10.65530 -36.90431 35033 ft 457 kts 35°
2026-04-25 01:07 -10.60328 -36.86710 35028 ft 457 kts 35°
2026-04-25 01:07 -10.55128 -36.82993 35026 ft 457 kts 35°
2026-04-25 01:08 -10.49923 -36.79276 35025 ft 457 kts 35°
2026-04-25 01:08 -10.44716 -36.75563 35022 ft 457 kts 35°
2026-04-25 01:09 -10.39541 -36.71871 35023 ft 458 kts 35°
2026-04-25 01:09 -10.34330 -36.68149 35024 ft 458 kts 35°
2026-04-25 01:10 -10.29121 -36.64432 35027 ft 458 kts 35°
2026-04-25 01:10 -10.23900 -36.60713 35034 ft 458 kts 35°
2026-04-25 01:11 -10.18726 -36.57024 35035 ft 458 kts 35°
2026-04-25 01:11 -10.13510 -36.53312 35031 ft 458 kts 35°
2026-04-25 01:12 -10.08290 -36.49612 35030 ft 457 kts 35°
2026-04-25 01:12 -10.03070 -36.45919 35026 ft 457 kts 35°
2026-04-25 01:13 -9.97886 -36.42247 35025 ft 458 kts 35°
2026-04-25 01:13 -9.92667 -36.38545 35027 ft 458 kts 35°
2026-04-25 01:14 -9.87442 -36.34847 35030 ft 458 kts 34°
2026-04-25 01:14 -9.82212 -36.31152 35030 ft 458 kts 35°
2026-04-25 01:15 -9.77024 -36.27479 35038 ft 457 kts 35°
2026-04-25 01:15 -9.71811 -36.23789 35042 ft 457 kts 35°
2026-04-25 01:16 -9.66595 -36.20109 35045 ft 457 kts 35°
2026-04-25 01:16 -9.61380 -36.16433 35045 ft 456 kts 35°
2026-04-25 01:17 -9.56213 -36.12783 35041 ft 456 kts 35°
2026-04-25 01:17 -9.51016 -36.09106 35042 ft 455 kts 35°
2026-04-25 01:18 -9.45821 -36.05433 35039 ft 455 kts 35°
2026-04-25 01:18 -9.40648 -36.01792 35025 ft 444 kts 35°
2026-04-25 01:19 -9.35689 -35.98297 35029 ft 434 kts 35°
2026-04-25 01:19 -9.30745 -35.94805 35029 ft 432 kts 35°
2026-04-25 01:20 -9.25808 -35.91330 35029 ft 433 kts 35°
2026-04-25 01:20 -9.20859 -35.87847 35029 ft 434 kts 35°
2026-04-25 01:21 -9.15931 -35.84379 35037 ft 434 kts 35°
2026-04-25 01:21 -9.10977 -35.80890 35039 ft 434 kts 35°
2026-04-25 01:22 -9.06026 -35.77408 35031 ft 433 kts 35°
2026-04-25 01:22 -9.00881 -35.74263 35034 ft 433 kts 22°
2026-04-25 01:23 -8.95183 -35.72397 35026 ft 433 kts 18°
2026-04-25 01:23 -8.89416 -35.70605 35024 ft 433 kts 18°
2026-04-25 01:23 -8.86535 -35.69709 34887 ft 433 kts 18°
2026-04-25 01:24 -8.83669 -35.68818 34636 ft 430 kts 18°
2026-04-25 01:24 -8.80809 -35.67929 34385 ft 428 kts 18°
2026-04-25 01:24 -8.77979 -35.67049 34079 ft 424 kts 18°
2026-04-25 01:24 -8.75170 -35.66174 33574 ft 421 kts 18°
2026-04-25 01:25 -8.72418 -35.65318 33075 ft 418 kts 19°
2026-04-25 01:25 -8.69646 -35.64457 32573 ft 415 kts 19°
2026-04-25 01:25 -8.66890 -35.63603 32075 ft 413 kts 19°
2026-04-25 01:25 -8.64152 -35.62756 31586 ft 410 kts 19°
2026-04-25 01:26 -8.61433 -35.61915 31106 ft 408 kts 19°
2026-04-25 01:26 -8.58733 -35.61077 30612 ft 405 kts 18°
2026-04-25 01:26 -8.56045 -35.60241 30162 ft 402 kts 18°
2026-04-25 01:26 -8.53382 -35.59411 29705 ft 400 kts 18°
2026-04-25 01:27 -8.50736 -35.58583 29261 ft 397 kts 18°
2026-04-25 01:27 -8.48144 -35.57773 28826 ft 394 kts 18°
2026-04-25 01:27 -8.45538 -35.56963 28392 ft 390 kts 18°
2026-04-25 01:28 -8.40382 -35.55371 27538 ft 384 kts 17°
2026-04-25 01:28 -8.37839 -35.54588 27093 ft 382 kts 18°
2026-04-25 01:28 -8.35306 -35.53803 26655 ft 379 kts 18°
2026-04-25 01:28 -8.32796 -35.53022 26207 ft 377 kts 18°
2026-04-25 01:29 -8.30298 -35.52244 25756 ft 374 kts 18°
2026-04-25 01:29 -8.27850 -35.51483 25306 ft 373 kts 18°
2026-04-25 01:29 -8.25379 -35.50714 24840 ft 371 kts 17°
2026-04-25 01:29 -8.22915 -35.49950 24375 ft 369 kts 17°
2026-04-25 01:30 -8.20467 -35.49192 23900 ft 367 kts 17°
2026-04-25 01:30 -8.18028 -35.48438 23424 ft 366 kts 17°
2026-04-25 01:30 -8.15599 -35.47685 22962 ft 365 kts 17°
2026-04-25 01:30 -8.13175 -35.46932 22483 ft 364 kts 18°
2026-04-25 01:31 -8.10762 -35.46182 22039 ft 362 kts 18°
2026-04-25 01:31 -8.08357 -35.45436 21584 ft 361 kts 18°
2026-04-25 01:31 -8.05987 -35.44704 21137 ft 360 kts 18°
2026-04-25 01:31 -8.03600 -35.43964 20694 ft 358 kts 18°
2026-04-25 01:32 -8.01221 -35.43228 20254 ft 357 kts 18°
2026-04-25 01:32 -7.98853 -35.42497 19813 ft 355 kts 18°
2026-04-25 01:32 -7.96495 -35.41768 19373 ft 354 kts 18°
2026-04-25 01:32 -7.94147 -35.41042 18940 ft 352 kts 18°
2026-04-25 01:33 -7.91809 -35.40316 18508 ft 351 kts 18°
2026-04-25 01:33 -7.89480 -35.39595 18081 ft 350 kts 18°
2026-04-25 01:33 -7.87160 -35.38876 17652 ft 348 kts 18°
2026-04-25 01:33 -7.84878 -35.38168 17235 ft 347 kts 18°
2026-04-25 01:34 -7.82573 -35.37457 16824 ft 346 kts 18°
2026-04-25 01:34 -7.80275 -35.36748 16406 ft 345 kts 18°
2026-04-25 01:34 -7.77985 -35.36041 16000 ft 344 kts 18°
2026-04-25 01:34 -7.75699 -35.35336 15587 ft 343 kts 18°
2026-04-25 01:35 -7.73425 -35.34633 15163 ft 342 kts 19°
2026-04-25 01:35 -7.71154 -35.33928 14754 ft 340 kts 19°
2026-04-25 01:35 -7.68896 -35.33227 14359 ft 339 kts 19°
2026-04-25 01:35 -7.66677 -35.32542 13962 ft 338 kts 19°
2026-04-25 01:36 -7.64434 -35.31851 13560 ft 336 kts 19°
2026-04-25 01:36 -7.62203 -35.31162 13155 ft 335 kts 19°
2026-04-25 01:36 -7.59980 -35.30475 12758 ft 333 kts 19°
2026-04-25 01:36 -7.57774 -35.29793 12356 ft 331 kts 19°
2026-04-25 01:37 -7.55580 -35.29114 11963 ft 329 kts 19°
2026-04-25 01:37 -7.53399 -35.28437 11573 ft 327 kts 19°
2026-04-25 01:37 -7.51260 -35.27775 11180 ft 325 kts 19°
2026-04-25 01:37 -7.49103 -35.27109 10808 ft 322 kts 19°
2026-04-25 01:38 -7.46959 -35.26451 10411 ft 321 kts 19°
2026-04-25 01:38 -7.44824 -35.25795 9976 ft 320 kts 19°
2026-04-25 01:38 -7.42727 -35.25151 9825 ft 309 kts 19°
2026-04-25 01:38 -7.40695 -35.24525 9591 ft 302 kts 19°
2026-04-25 01:39 -7.38697 -35.23908 9253 ft 299 kts 19°
2026-04-25 01:39 -7.36712 -35.23294 8875 ft 298 kts 19°
2026-04-25 01:39 -7.34737 -35.22685 8498 ft 296 kts 19°
2026-04-25 01:39 -7.32798 -35.22087 8118 ft 295 kts 19°
2026-04-25 01:40 -7.30847 -35.21485 7724 ft 293 kts 19°
2026-04-25 01:40 -7.28901 -35.20884 7326 ft 292 kts 19°
2026-04-25 01:40 -7.26965 -35.20285 6926 ft 290 kts 19°
2026-04-25 01:40 -7.25043 -35.19691 6528 ft 288 kts 19°
2026-04-25 01:41 -7.23129 -35.19099 6122 ft 287 kts 19°
2026-04-25 01:41 -7.21227 -35.18510 5715 ft 285 kts 19°
2026-04-25 01:41 -7.19330 -35.17924 5296 ft 284 kts 19°
2026-04-25 01:41 -7.17445 -35.17342 4885 ft 283 kts 19°
2026-04-25 01:42 -7.15564 -35.16761 4314 ft 287 kts 19°
2026-04-25 01:42 -7.13645 -35.16168 3586 ft 297 kts 19°
2026-04-25 01:42 -7.11684 -35.15565 3282 ft 290 kts 19°
2026-04-25 01:42 -7.09815 -35.14943 3140 ft 275 kts 27°
2026-04-25 01:43 -7.08320 -35.13879 3102 ft 254 kts 48°
2026-04-25 01:43 -7.07112 -35.12655 3009 ft 241 kts 48°
2026-04-25 01:43 -7.05941 -35.11478 2814 ft 234 kts 48°
2026-04-25 01:43 -7.04807 -35.10339 2686 ft 227 kts 48°
2026-04-25 01:44 -7.03726 -35.09218 2558 ft 218 kts 55°
2026-04-25 01:44 -7.03186 -35.07888 2426 ft 204 kts 90°
2026-04-25 01:44 -7.03462 -35.06541 2302 ft 198 kts 121°
2026-04-25 01:44 -7.04350 -35.05498 2173 ft 197 kts 136°
2026-04-25 01:45 -7.05327 -35.04531 2061 ft 195 kts 136°
2026-04-25 01:45 -7.06265 -35.03606 1959 ft 182 kts 136°
2026-04-25 01:45 -7.07139 -35.02743 1873 ft 170 kts 135°
2026-04-25 01:45 -7.07954 -35.01936 1801 ft 159 kts 135°
2026-04-25 01:46 -7.08719 -35.01179 1678 ft 155 kts 135°
2026-04-25 01:46 -7.09484 -35.00421 1483 ft 154 kts 135°
2026-04-25 01:46 -7.10236 -34.99670 1288 ft 151 kts 135°
2026-04-25 01:46 -7.10975 -34.98932 1093 ft 149 kts 135°
2026-04-25 01:47 -7.11707 -34.98199 906 ft 148 kts 135°
2026-04-25 01:47 -7.12462 -34.97446 716 ft 162 kts 135°
2026-04-25 01:47 -7.13229 -34.96680 499 ft 149 kts 135°
2026-04-25 01:47 -7.13949 -34.95963 296 ft 144 kts 135°
2026-04-25 01:48 -7.14621 -34.95298 221 ft 119 kts 136°
2026-04-25 01:48 -7.15096 -34.94829 223 ft 65 kts 135°
2026-04-25 01:48 -7.15294 -34.94632 221 ft 33 kts 135°
2026-04-25 01:48 -7.15447 -34.94477 221 ft 29 kts 135°
2026-04-25 01:49 -7.15578 -34.94345 222 ft 24 kts 139°
2026-04-25 01:49 -7.15666 -34.94299 223 ft 7 kts 122°
2026-04-25 01:49 -7.15641 -34.94286 222 ft 5 kts 339°
2026-04-25 01:49 -7.15606 -34.94323 222 ft 7 kts 311°
2026-04-25 01:50 -7.15561 -34.94368 222 ft 15 kts 317°
2026-04-25 01:50 -7.15451 -34.94474 221 ft 29 kts 315°
2026-04-25 01:50 -7.15302 -34.94624 221 ft 28 kts 315°
2026-04-25 01:50 -7.15166 -34.94759 222 ft 27 kts 315°
2026-04-25 01:51 -7.15031 -34.94893 223 ft 27 kts 315°
2026-04-25 01:51 -7.14901 -34.95020 223 ft 23 kts 316°
2026-04-25 01:51 -7.14818 -34.95079 223 ft 11 kts 10°
2026-04-25 01:51 -7.14762 -34.95037 222 ft 10 kts 45°
2026-04-25 01:52 -7.14717 -34.94987 221 ft 9 kts 66°
2026-04-25 01:52 -7.14746 -34.94940 221 ft 9 kts 139°
2026-04-25 01:52 -7.14776 -34.94888 221 ft 9 kts 84°
2026-04-25 01:52 -7.14734 -34.94835 221 ft 11 kts 43°
2026-04-25 01:53 -7.14693 -34.94810 221 ft 6 kts 345°
2026-04-25 01:53 -7.14672 -34.94829 222 ft 2 kts 315°
2026-04-25 01:53 -7.14666 -34.94834 221 ft 1 kts 315°
2026-04-25 01:53 -7.14665 -34.94835 221 ft 0 kts 315°